Weather History for KAMG - May, 2013

Change the Weather History Date:

Saturday, May 11, 2013

  Actual Average Record
Temperature  
Mean Temperature 74 °F 72 °F  
Max Temperature 84 °F 85 °F 96 °F (2011)
Min Temperature 64 °F 60 °F 45 °F (1990)
Degree Days  
Heating Degree Days 0 0  
Month to date heating degree days 8 3  
Since 1 July heating degree days 1598 1656  
Cooling Degree Days 9 8  
Month to date cooling degree days 28 71  
Year to date cooling degree days 145 225  
Growing Degree Days 24 (Base 50)    
Moisture  
Dew Point 62 °F    
Average Humidity 69    
Maximum Humidity 93    
Minimum Humidity 44    
Precipitation  
Precipitation 0.00 in 0.06 in 2.81 in (2008)
Month to date precipitation 2.41 0.73  
Year to date precipitation 18.05 16.35  
Snow  
Snow 0.00 in 0.00 in 0.00 in ()
Month to date snowfall 0.0 0.0  
Since 1 July snowfall T 0.1  
Snow Depth 0.00 in    
Sea Level Pressure  
Sea Level Pressure 29.98 in    
Wind  
Wind Speed 7 mph (SW)    
Max Wind Speed 15 mph    
Max Gust Speed 22 mph    
Visibility 9 miles    
Events      
T = Trace of Precipitation, MM = Missing Value Source: NWS Daily Summary

Daily Weather History Graph

Daily Weather History Graph

Search for Another Location

Airport or City:

Trip Planner

Search our weather history database for the weather conditions in past years. The results will help you decide how hot, cold, wet, or windy it might be!

Date:

Astronomy

May. 11, 2013 Rise Set
Actual Time 6:36 AM EDT 8:16 PM EDT
Civil Twilight 6:09 AM EDT 8:43 PM EDT
Nautical Twilight 5:38 AM EDT 9:15 PM EDT
Astronomical Twilight 5:04 AM EDT 9:48 PM EDT
Moon 7:45 AM EDT (5/11) 9:54 PM EDT (5/11)
Length of Visible Light 14h 33m
Length of Day
13h 40m
Waxing Crescent, 3% of the Moon is Illuminated
May 11
Waxing Crescent
May 18
First Quarter
May 25
Full
May 31
Last Quarter
Jun 8
New

Hourly Weather History & Observations

Time (EDT) Temp. Heat Index Dew Point Humidity Pressure Visibility Wind Dir Wind Speed Gust Speed Precip Events Conditions
12:53 AM 66.0 °F - 60.1 °F 81% 30.02 in 10.0 mi SSW 4.6 mph - N/A   Clear
1:53 AM 64.0 °F - 59.0 °F 84% 30.02 in 10.0 mi South 3.5 mph - N/A   Clear
2:53 AM 64.9 °F - 59.0 °F 81% 30.01 in 10.0 mi South 4.6 mph - N/A   Scattered Clouds
3:53 AM 64.0 °F - 59.0 °F 84% 30.00 in 10.0 mi South 3.5 mph - N/A   Clear
4:53 AM 64.0 °F - 61.0 °F 90% 30.00 in 8.0 mi Calm Calm - N/A   Overcast
5:53 AM 64.0 °F - 61.0 °F 90% 30.00 in 7.0 mi SSW 3.5 mph - N/A   Scattered Clouds
6:53 AM 64.0 °F - 62.1 °F 93% 30.00 in 6.0 mi South 4.6 mph - N/A   Scattered Clouds
7:53 AM 66.0 °F - 62.1 °F 87% 29.99 in 7.0 mi SSW 5.8 mph - N/A   Clear
8:53 AM 70.0 °F - 63.0 °F 78% 30.01 in 10.0 mi SW 5.8 mph - N/A   Partly Cloudy
9:53 AM 75.0 °F - 63.0 °F 66% 30.01 in 10.0 mi SW 9.2 mph - N/A   Clear
10:53 AM 78.1 °F - 62.1 °F 58% 30.01 in 10.0 mi SW 10.4 mph - N/A   Clear
11:53 AM 81.0 °F 81.6 °F 60.1 °F 49% 30.00 in 10.0 mi SW 12.7 mph - N/A   Partly Cloudy
12:53 PM 82.0 °F 82.4 °F 60.1 °F 47% 29.97 in 10.0 mi WNW 6.9 mph - N/A   Clear
1:53 PM 82.9 °F 83.3 °F 61.0 °F 47% 29.96 in 10.0 mi Variable 6.9 mph - N/A   Partly Cloudy
2:53 PM 84.0 °F 84.0 °F 60.1 °F 44% 29.96 in 10.0 mi West 12.7 mph 19.6 mph N/A   Mostly Cloudy
3:53 PM 82.9 °F 83.2 °F 60.1 °F 46% 29.95 in 10.0 mi West 10.4 mph - N/A   Scattered Clouds
4:53 PM 82.0 °F 82.7 °F 61.0 °F 49% 29.94 in 10.0 mi WSW 11.5 mph 16.1 mph N/A   Partly Cloudy
5:53 PM 79.0 °F - 62.1 °F 56% 29.94 in 10.0 mi SW 9.2 mph - N/A   Scattered Clouds
6:53 PM 75.9 °F - 64.9 °F 69% 29.95 in 10.0 mi SW 13.8 mph 17.3 mph N/A   Mostly Cloudy
7:53 PM 73.9 °F - 64.9 °F 73% 29.95 in 10.0 mi SW 11.5 mph 18.4 mph N/A   Overcast
8:53 PM 72.0 °F - 64.9 °F 78% 29.94 in 10.0 mi SW 6.9 mph - N/A   Clear
9:53 PM 70.0 °F - 64.9 °F 84% 29.94 in 10.0 mi SW 4.6 mph - N/A   Clear
10:53 PM 69.1 °F - 66.0 °F 90% 29.95 in 10.0 mi SW 5.8 mph - N/A   Clear
11:25 PM 69.8 °F - 66.2 °F 88% 29.97 in 9.0 mi WSW 6.9 mph - N/A   Scattered Clouds
11:34 PM 69.8 °F - 66.2 °F 88% 29.97 in 9.0 mi WSW 5.8 mph - N/A   Mostly Cloudy
11:46 PM 69.8 °F - 66.2 °F 88% 29.97 in 9.0 mi WSW 4.6 mph - N/A   Scattered Clouds
11:53 PM 68.0 °F - 66.0 °F 93% 29.96 in 8.0 mi SW 6.9 mph - N/A   Scattered Clouds